Simultaneous Nadir Overpasses (SNOs) Predictions

Prediction of SNOs between GOES-17 and AQUA Satellite Orbit:

Table of predicted SNOs for the next 14.0 days since TLE Epoch: 7/26/2019
Index Date Time (GOES-17) GOES-17 Lat,Lon AQUA Lat,Lon Distance(km) Time Diff (sec)
1 07/27/2019 10:57:36 -0.03,-137.20 0.61,-140.10 330.58 80
2 07/29/2019 10:45:26 -0.03,-137.18 -0.05,-137.15 3.98 80
3 07/31/2019 10:33:14 -0.04,-137.16 -0.65,-134.19 337.39 80
4 07/31/2019 22:51:57 0.04,-137.15 -0.43,-139.39 253.92 80
5 08/02/2019 22:42:25 0.04,-137.12 0.17,-136.42 79.07 80
6 08/04/2019 22:30:15 0.04,-137.09 0.84,-133.47 411.78 80
7 08/05/2019 10:48:50 -0.04,-137.09 0.27,-138.63 175.45 80
8 08/07/2019 10:39:18 -0.05,-137.05 -0.34,-135.67 156.73 80
9 08/07/2019 22:58:01 0.05,-137.03 -0.79,-140.85 435.11 80
10 08/09/2019 10:27:06 -0.05,-137.01 -0.95,-132.71 488.25 80




NCC Satellite Simultaneous Nadir Overpasses (SNOs) Prediction Service
